Time,TemperatureF,DewpointF,PressureIn,WindDirection,WindDirectionDegrees,WindSpeedMPH,WindSpeedGustMPH,Humidity,HourlyPrecipIn,Conditions,Clouds,dailyrainin,SolarRadiationWatts/m^2,SoftwareType,DateUTC
2013-06-13 00:02:00,60.0,40.0,-100.00,South,184,4.0,14.0,48,0.00,,,0.00,2.000000,,2013-06-13 06:02:00,
2013-06-13 00:11:00,60.0,40.0,-100.00,South,184,4.0,14.0,48,0.00,,,0.00,2.000000,,2013-06-13 06:11:00,
2013-06-13 00:33:00,59.0,42.0,-100.00,WSW,250,4.0,14.0,53,0.00,,,0.00,1.000000,,2013-06-13 06:33:00,
2013-06-13 00:44:00,59.0,42.0,-100.00,WSW,250,4.0,14.0,53,0.00,,,0.00,1.000000,,2013-06-13 06:44:00,
2013-06-13 00:52:00,59.0,42.0,-100.00,WSW,250,4.0,14.0,53,0.00,,,0.00,1.000000,,2013-06-13 06:52:00,
2013-06-13 01:01:00,59.0,42.0,-100.00,WSW,250,4.0,14.0,53,0.00,,,0.00,1.000000,,2013-06-13 07:01:00,
2013-06-13 01:11:00,59.0,42.0,-100.00,WSW,250,4.0,14.0,53,0.00,,,0.00,1.000000,,2013-06-13 07:11:00,
2013-06-13 01:42:00,56.0,43.0,-100.00,South,185,3.0,14.0,62,-99.99,,,0.00,1.000000,,2013-06-13 07:42:00,
2013-06-13 01:52:00,56.0,43.0,-100.00,South,185,3.0,14.0,62,-99.99,,,0.00,1.000000,,2013-06-13 07:52:00,
2013-06-13 02:01:00,56.0,43.0,-100.00,South,185,3.0,14.0,62,-99.99,,,0.00,1.000000,,2013-06-13 08:01:00,
2013-06-13 02:11:00,56.0,43.0,-100.00,South,185,3.0,14.0,62,-99.99,,,0.00,1.000000,,2013-06-13 08:11:00,
2013-06-13 02:43:00,50.0,49.0,-100.00,WSW,251,1.0,7.0,95,0.04,,,0.04,1.000000,,2013-06-13 08:43:00,
2013-06-13 02:52:00,50.0,49.0,-100.00,WSW,251,1.0,7.0,95,0.04,,,0.04,1.000000,,2013-06-13 08:52:00,
2013-06-13 03:01:00,50.0,49.0,-100.00,WSW,251,1.0,7.0,95,0.04,,,0.04,1.000000,,2013-06-13 09:01:00,
2013-06-13 03:11:00,50.0,49.0,-100.00,WSW,251,1.0,7.0,95,0.04,,,0.04,1.000000,,2013-06-13 09:11:00,
2013-06-13 03:32:00,50.0,49.0,-100.00,ESE,104,1.0,2.0,96,0.00,,,0.04,1.000000,,2013-06-13 09:32:00,
2013-06-13 03:42:00,50.0,49.0,-100.00,ESE,104,1.0,2.0,96,0.00,,,0.04,1.000000,,2013-06-13 09:42:00,
2013-06-13 03:52:00,50.0,49.0,-100.00,ESE,104,1.0,2.0,96,0.00,,,0.04,1.000000,,2013-06-13 09:52:00,
2013-06-13 04:01:00,50.0,49.0,-100.00,ESE,104,1.0,2.0,96,0.00,,,0.04,1.000000,,2013-06-13 10:01:00,
2013-06-13 04:11:00,50.0,49.0,-100.00,ESE,104,1.0,2.0,96,0.00,,,0.04,1.000000,,2013-06-13 10:11:00,
2013-06-13 04:33:00,50.0,49.0,-100.00,East,93,1.0,5.0,95,0.00,,,0.04,1.000000,,2013-06-13 10:33:00,
2013-06-13 04:43:00,50.0,49.0,-100.00,East,93,1.0,5.0,95,0.00,,,0.04,1.000000,,2013-06-13 10:43:00,
2013-06-13 04:53:00,50.0,49.0,-100.00,East,93,1.0,5.0,95,0.00,,,0.04,1.000000,,2013-06-13 10:53:00,
2013-06-13 05:01:00,50.0,49.0,-100.00,East,93,1.0,5.0,95,0.00,,,0.04,1.000000,,2013-06-13 11:01:00,
2013-06-13 05:11:00,50.0,49.0,-100.00,East,93,1.0,5.0,95,0.00,,,0.04,1.000000,,2013-06-13 11:11:00,
2013-06-13 05:42:00,49.0,47.0,-100.00,South,177,3.0,10.0,94,0.08,,,0.12,1.000000,,2013-06-13 11:42:00,
2013-06-13 05:52:00,49.0,47.0,-100.00,South,177,3.0,10.0,94,0.08,,,0.12,1.000000,,2013-06-13 11:52:00,
2013-06-13 06:01:00,49.0,47.0,-100.00,South,177,3.0,10.0,94,0.08,,,0.12,1.000000,,2013-06-13 12:01:00,
2013-06-13 06:11:00,49.0,47.0,-100.00,South,177,3.0,10.0,94,0.08,,,0.12,1.000000,,2013-06-13 12:11:00,
2013-06-13 06:35:00,48.0,45.0,-100.00,SW,221,5.0,12.0,91,0.03,,,0.15,1.000000,,2013-06-13 12:35:00,
2013-06-13 06:43:00,48.0,45.0,-100.00,SW,221,5.0,12.0,91,0.03,,,0.15,1.000000,,2013-06-13 12:43:00,
2013-06-13 06:52:00,48.0,45.0,-100.00,SW,221,5.0,12.0,91,0.03,,,0.15,1.000000,,2013-06-13 12:52:00,
2013-06-13 07:01:00,48.0,45.0,-100.00,SW,221,5.0,12.0,91,0.03,,,0.15,1.000000,,2013-06-13 13:01:00,
2013-06-13 07:11:00,48.0,45.0,-100.00,SW,221,5.0,12.0,91,0.03,,,0.15,1.000000,,2013-06-13 13:11:00,
2013-06-13 07:43:00,46.0,45.0,-100.00,NW,306,2.0,8.0,95,0.18,,,0.33,1.000000,,2013-06-13 13:43:00,
2013-06-13 07:53:00,46.0,45.0,-100.00,NW,306,2.0,8.0,95,0.18,,,0.33,1.000000,,2013-06-13 13:53:00,
2013-06-13 08:02:00,46.0,45.0,-100.00,NW,306,2.0,8.0,95,0.18,,,0.33,1.000000,,2013-06-13 14:02:00,
2013-06-13 08:11:00,46.0,45.0,-100.00,NW,306,2.0,8.0,95,0.18,,,0.33,1.000000,,2013-06-13 14:11:00,
2013-06-13 08:43:00,45.0,44.0,-100.00,South,185,1.0,4.0,97,0.07,,,0.40,7.000000,,2013-06-13 14:43:00,
2013-06-13 08:53:00,45.0,44.0,-100.00,South,185,1.0,4.0,97,0.07,,,0.40,7.000000,,2013-06-13 14:53:00,
2013-06-13 09:01:00,45.0,44.0,-100.00,South,185,1.0,4.0,97,0.07,,,0.40,7.000000,,2013-06-13 15:01:00,
2013-06-13 09:11:00,45.0,44.0,-100.00,South,185,1.0,4.0,97,0.07,,,0.40,7.000000,,2013-06-13 15:11:00,
2013-06-13 09:43:00,44.0,43.0,-100.00,NNW,347,2.0,4.0,95,0.11,,,0.51,21.000000,,2013-06-13 15:43:00,
2013-06-13 09:53:00,44.0,43.0,-100.00,NNW,347,2.0,4.0,95,0.11,,,0.51,21.000000,,2013-06-13 15:53:00,
2013-06-13 10:01:00,44.0,43.0,-100.00,NNW,347,2.0,4.0,95,0.11,,,0.51,21.000000,,2013-06-13 16:01:00,
2013-06-13 10:11:00,44.0,43.0,-100.00,NNW,347,2.0,4.0,95,0.11,,,0.51,21.000000,,2013-06-13 16:11:00,
2013-06-13 10:43:00,44.0,43.0,-100.00,East,100,1.0,4.0,96,0.04,,,0.55,64.000000,,2013-06-13 16:43:00,
2013-06-13 10:53:00,44.0,43.0,-100.00,East,100,1.0,4.0,96,0.04,,,0.55,64.000000,,2013-06-13 16:53:00,
2013-06-13 11:02:00,44.0,43.0,-100.00,East,100,1.0,4.0,96,0.04,,,0.55,64.000000,,2013-06-13 17:02:00,
2013-06-13 11:11:00,44.0,43.0,-100.00,East,100,1.0,4.0,96,0.04,,,0.55,64.000000,,2013-06-13 17:11:00,
2013-06-13 11:43:00,45.0,43.0,-100.00,North,355,2.0,6.0,92,0.02,,,0.57,126.000000,,2013-06-13 17:43:00,
2013-06-13 11:53:00,45.0,43.0,-100.00,North,355,2.0,6.0,92,0.02,,,0.57,126.000000,,2013-06-13 17:53:00,
2013-06-13 12:02:00,45.0,43.0,-100.00,North,355,2.0,6.0,92,0.02,,,0.57,126.000000,,2013-06-13 18:02:00,
2013-06-13 12:11:00,45.0,43.0,-100.00,North,355,2.0,6.0,92,0.02,,,0.57,126.000000,,2013-06-13 18:11:00,
2013-06-13 12:33:00,48.0,44.0,-100.00,SE,132,2.0,5.0,86,0.01,,,0.58,307.000000,,2013-06-13 18:33:00,
2013-06-13 12:43:00,48.0,44.0,-100.00,SE,132,2.0,5.0,86,0.01,,,0.58,307.000000,,2013-06-13 18:43:00,
2013-06-13 12:52:00,48.0,44.0,-100.00,SE,132,2.0,5.0,86,0.01,,,0.58,307.000000,,2013-06-13 18:52:00,
2013-06-13 13:01:00,48.0,44.0,-100.00,SE,132,2.0,5.0,86,0.01,,,0.58,307.000000,,2013-06-13 19:01:00,
2013-06-13 13:11:00,48.0,44.0,-100.00,SE,132,2.0,5.0,86,0.01,,,0.58,307.000000,,2013-06-13 19:11:00,
2013-06-13 13:43:00,50.0,43.0,-100.00,NE,44,3.0,6.0,77,0.00,,,0.58,283.000000,,2013-06-13 19:43:00,
2013-06-13 13:53:00,50.0,43.0,-100.00,NE,44,3.0,6.0,77,0.00,,,0.58,283.000000,,2013-06-13 19:53:00,
2013-06-13 14:01:00,50.0,43.0,-100.00,NE,44,3.0,6.0,77,0.00,,,0.58,283.000000,,2013-06-13 20:01:00,
2013-06-13 14:11:00,50.0,43.0,-100.00,NE,44,3.0,6.0,77,0.00,,,0.58,283.000000,,2013-06-13 20:11:00,
2013-06-13 14:33:00,52.0,43.0,-100.00,North,5,2.0,5.0,72,0.00,,,0.58,253.000000,,2013-06-13 20:33:00,
2013-06-13 14:44:00,52.0,43.0,-100.00,North,5,2.0,5.0,72,0.00,,,0.58,253.000000,,2013-06-13 20:44:00,
2013-06-13 14:53:00,52.0,43.0,-100.00,North,5,2.0,5.0,72,0.00,,,0.58,253.000000,,2013-06-13 20:53:00,
2013-06-13 15:01:00,52.0,43.0,-100.00,North,5,2.0,5.0,72,0.00,,,0.58,253.000000,,2013-06-13 21:01:00,
2013-06-13 15:11:00,52.0,43.0,-100.00,North,5,2.0,5.0,72,0.00,,,0.58,253.000000,,2013-06-13 21:11:00,
2013-06-13 15:43:00,56.0,43.0,-100.00,NNW,336,3.0,8.0,61,0.00,,,0.58,846.000000,,2013-06-13 21:43:00,
2013-06-13 15:52:00,56.0,43.0,-100.00,NNW,336,3.0,8.0,61,0.00,,,0.58,846.000000,,2013-06-13 21:52:00,
2013-06-13 16:01:00,56.0,43.0,-100.00,NNW,336,3.0,8.0,61,0.00,,,0.58,846.000000,,2013-06-13 22:01:00,
2013-06-13 16:11:00,56.0,43.0,-100.00,NNW,336,3.0,8.0,61,0.00,,,0.58,846.000000,,2013-06-13 22:11:00,
2013-06-13 16:43:00,58.0,39.0,-100.00,SSW,196,4.0,9.0,50,0.00,,,0.58,686.000000,,2013-06-13 22:43:00,
2013-06-13 16:52:00,58.0,39.0,-100.00,SSW,196,4.0,9.0,50,0.00,,,0.58,686.000000,,2013-06-13 22:52:00,
2013-06-13 17:01:00,58.0,39.0,-100.00,SSW,196,4.0,9.0,50,0.00,,,0.58,686.000000,,2013-06-13 23:01:00,
2013-06-13 17:11:00,58.0,39.0,-100.00,SSW,196,4.0,9.0,50,0.00,,,0.58,686.000000,,2013-06-13 23:11:00,
2013-06-13 17:43:00,51.0,45.0,-100.00,NNE,26,9.0,26.0,81,0.01,,,0.59,416.000000,,2013-06-13 23:43:00,
2013-06-13 17:52:00,51.0,45.0,-100.00,NNE,26,9.0,26.0,81,0.01,,,0.59,416.000000,,2013-06-13 23:52:00,
2013-06-13 18:01:00,51.0,45.0,-100.00,NNE,26,9.0,26.0,81,0.01,,,0.59,416.000000,,2013-06-14 00:01:00,
2013-06-13 18:11:00,51.0,45.0,-100.00,NNE,26,9.0,26.0,81,0.01,,,0.59,416.000000,,2013-06-14 00:11:00,
2013-06-13 18:43:00,49.0,43.0,-100.00,ENE,71,2.0,12.0,79,0.03,,,0.62,172.000000,,2013-06-14 00:43:00,
2013-06-13 18:53:00,49.0,43.0,-100.00,ENE,71,2.0,12.0,79,0.03,,,0.62,172.000000,,2013-06-14 00:53:00,
2013-06-13 19:01:00,49.0,43.0,-100.00,ENE,71,2.0,12.0,79,0.03,,,0.62,172.000000,,2013-06-14 01:01:00,
2013-06-13 19:11:00,49.0,43.0,-100.00,ENE,71,2.0,12.0,79,0.03,,,0.62,172.000000,,2013-06-14 01:11:00,
2013-06-13 19:43:00,51.0,45.0,-100.00,ENE,64,1.0,5.0,81,0.00,,,-99.99,300.000000,,2013-06-14 01:43:00,
2013-06-13 19:52:00,51.0,45.0,-100.00,ENE,64,1.0,5.0,81,0.00,,,-99.99,300.000000,,2013-06-14 01:52:00,
2013-06-13 20:02:00,51.0,45.0,-100.00,ENE,64,1.0,5.0,81,0.00,,,-99.99,300.000000,,2013-06-14 02:02:00,
2013-06-13 20:11:00,51.0,45.0,-100.00,ENE,64,1.0,5.0,81,0.00,,,-99.99,300.000000,,2013-06-14 02:11:00,
2013-06-13 20:43:00,52.0,42.0,-100.00,NE,47,3.0,6.0,69,0.00,,,0.62,157.000000,,2013-06-14 02:43:00,
2013-06-13 20:52:00,52.0,42.0,-100.00,NE,47,3.0,6.0,69,0.00,,,0.62,157.000000,,2013-06-14 02:52:00,
2013-06-13 21:02:00,52.0,42.0,-100.00,NE,47,3.0,6.0,69,0.00,,,0.62,157.000000,,2013-06-14 03:02:00,
2013-06-13 21:11:00,52.0,42.0,-100.00,NE,47,3.0,6.0,69,0.00,,,0.62,157.000000,,2013-06-14 03:11:00,
2013-06-13 21:43:00,50.0,42.0,-100.00,East,83,2.0,7.0,73,0.00,,,0.62,80.000000,,2013-06-14 03:43:00,
2013-06-13 21:53:00,50.0,42.0,-100.00,East,83,2.0,7.0,73,0.00,,,0.62,80.000000,,2013-06-14 03:53:00,
2013-06-13 22:01:00,50.0,42.0,-100.00,East,83,2.0,7.0,73,0.00,,,0.62,80.000000,,2013-06-14 04:01:00,
2013-06-13 22:12:00,50.0,42.0,-100.00,East,83,2.0,7.0,73,0.00,,,0.62,80.000000,,2013-06-14 04:12:00,
2013-06-13 22:43:00,46.0,44.0,-100.00,ENE,73,1.0,4.0,91,0.00,,,-99.99,14.000000,,2013-06-14 04:43:00,
2013-06-13 22:53:00,46.0,44.0,-100.00,ENE,73,1.0,4.0,91,0.00,,,-99.99,14.000000,,2013-06-14 04:53:00,
2013-06-13 23:01:00,46.0,44.0,-100.00,ENE,73,1.0,4.0,91,0.00,,,-99.99,14.000000,,2013-06-14 05:01:00,
2013-06-13 23:11:00,46.0,44.0,-100.00,ENE,73,1.0,4.0,91,0.00,,,-99.99,14.000000,,2013-06-14 05:11:00,
2013-06-13 23:34:00,43.0,41.0,-100.00,ESE,111,2.0,4.0,94,0.00,,,0.62,2.000000,,2013-06-14 05:34:00,
2013-06-13 23:43:00,43.0,41.0,-100.00,ESE,111,2.0,4.0,94,0.00,,,0.62,2.000000,,2013-06-14 05:43:00,
2013-06-13 23:52:00,43.0,41.0,-100.00,ESE,111,2.0,4.0,94,0.00,,,0.62,2.000000,,2013-06-14 05:52:00,